Location: Breibach
(50.6497°N, 7.5919°E)
Time: 06:10:52
(UTC+00:00)

Daily predictions for brighter satellites

Satellite Brightness Start Highest point End
(mag) Time Altitude Azimuth Time Altitude Azimuth Time Altitude Azimuth
Feng Yun 1-1 Rocket 4.4 16:26:45 10° SSE 16:32:25 66° ENE 16:38:15 10° NNW
YAOGAN 1 3.9 16:33:14 10° ESE 16:36:12 18° ENE 16:39:11 10° NNE
Cosmos 1340 Rocket 3.7 16:34:37 10° N 16:38:02 27° ENE 16:41:27 10° SE
Okean 1-7 Rocket 3.5 16:34:33 10° S 16:38:55 75° E 16:43:22 10° NNE
SL-16 R/B 3.5 16:35:18 10° NNW 16:39:31 21° NE 16:43:45 10° E
PSLV R/B 4.0 16:38:24 10° NNE 16:42:25 58° ESE 16:46:27 10° S
KORONAS-FOTON 3.7 16:38:45 10° S 16:42:30 71° E 16:46:18 10° NNE
Meteor 2-5 Rocket 3.7 16:37:10 10° S 16:42:38 67° E 16:48:12 10° NNE
Cosmos 2058 Rocket 3.2 16:38:38 10° NNW 16:43:02 82° W 16:47:23 10° S
ATLAS 5 CENTAUR R/B 1.7 16:39:20 10° SW 16:43:37 83° NW 16:48:31 10° NE
Cosmos 1898 Rocket 4.2 16:38:30 10° SW 16:43:44 57° WNW 16:48:58 10° NNE
AQUARIUS 4.1 16:39:46 10° SSE 16:44:15 75° ENE 16:48:46 10° N
Cosmos 1455 4.1 16:43:43 10° NE 16:44:58 11° ENE 16:46:12 10° E
Starlink AR 3.6 16:43:04 10° SSW 16:45:19 29° SSE 16:47:36 10° E
Cosmos 1242 Rocket 3.3 16:43:04 10° SSE 16:46:12 31° E 16:49:24 10° NNE
Cosmos 1271 Rocket 3.1 16:42:58 10° SSE 16:46:30 41° E 16:50:04 10° NNE
SL-14 R/B 4.0 16:43:48 10° SSE 16:47:25 34° E 16:51:03 10° NNE
Cosmos 2074 Rocket 4.1 16:41:33 10° S 16:47:45 63° E 16:53:57 10° NNE
Cosmos 1461 3.3 16:43:57 10° NW 16:48:14 74° SW 16:52:41 10° SSE
Cosmos 1626 2.9 16:46:09 10° SSE 16:49:25 31° E 16:52:44 10° NNE
Cosmos 1833 4.3 16:44:09 10° SSW 16:49:51 85° WNW 16:55:39 10° NNE
Cosmos 1937 Rocket 4.0 16:46:19 10° SW 16:51:32 64° WNW 16:56:50 10° NNE
USA 234 4.2 16:45:20 10° SE 16:51:41 52° SW 16:58:03 10° WNW
CZ-4C R/B 2.9 16:45:06 10° NW 16:52:06 81° NE 17:00:14 10° SE
YAOGAN 6 3.1 16:48:54 10° SE 16:52:18 37° ENE 16:55:43 10° N
NOAA 12 4.1 16:47:52 10° SSE 16:53:03 68° ENE 16:58:17 10° N
Cosmos 2150 Rocket 4.1 16:48:28 10° S 16:53:31 59° ESE 16:58:35 10° NNE
Cosmos 1602 Rocket 4.2 16:49:52 10° SSE 16:53:50 34° E 16:57:49 10° NNE
COSMOS 2487 3.9 16:51:26 10° SW 16:54:39 35° WNW 16:57:55 10° N
IRS-1C Rocket 4.2 16:50:09 10° SSE 16:55:25 84° WSW 17:00:43 10° NNW
CORIOLIS 4.2 16:52:56 10° SSE 16:58:20 90° WSW 17:03:43 10° NNW
COBE Rocket 4.3 16:55:37 10° N 17:00:43 72° WNW 17:05:53 10° SSW
COSMO-SKYMED 1 3.5 16:57:13 10° NE 17:01:01 29° E 17:04:47 10° SSE
Cosmos 1980 3.9 16:56:04 10° NNW 17:01:40 52° NE 17:07:12 10° SE
Cosmos 1939 Rocket 4.0 17:00:31 10° ESE 17:03:30 21° ENE 17:06:32 10° NNE
Cosmos 2297 Rocket 3.6 16:59:54 10° SE 17:03:41 19° E 17:06:34 13° ENE
Starlink AQ 3.3 17:01:13 10° SW 17:04:01 44° SSE 17:06:04 16° E
Cosmos 2360 Rocket 4.5 17:00:23 10° NW 17:05:11 29° WSW 17:09:57 10° SSW
Nadezhda 3 Rocket 4.0 16:59:24 10° N 17:05:40 66° ENE 17:11:56 10° SSE
Starlink AS 3.3 17:03:32 10° SW 17:06:20 46° SSE 17:08:19 17° E
Starlink BA 3.2 17:03:46 10° SW 17:06:35 46° SSE 17:08:33 17° E
Starlink AU 3.2 17:04:00 10° SW 17:06:48 46° SSE 17:08:46 17° E
Starlink AT 3.2 17:04:13 10° SW 17:07:02 46° SSE 17:08:59 17° E
Starlink BB 3.2 17:04:27 10° SW 17:07:16 47° SSE 17:09:12 17° E
Starlink BC 3.2 17:04:39 10° SW 17:07:29 47° SSE 17:09:25 18° E
Starlink BK 3.2 17:04:54 10° SW 17:07:43 47° SSE 17:09:38 18° E
Starlink AY 3.2 17:05:07 10° SW 17:07:56 47° SSE 17:09:51 18° E
Meteor 2-1 Rocket 4.3 17:02:34 10° N 17:07:58 52° ENE 17:13:20 10° SSE
Starlink AW 3.2 17:05:21 10° SW 17:08:10 47° SSE 17:10:05 18° E
H-2A R/B 3.6 17:04:35 10° S 17:08:21 54° W 17:12:12 10° NNW
Starlink BJ 3.2 17:05:37 10° SW 17:08:26 47° SSE 17:10:20 18° E
Starlink AV 3.2 17:05:50 10° SW 17:08:40 48° SSE 17:10:34 18° E
Starlink BD 3.2 17:06:04 10° SW 17:08:53 48° SSE 17:10:46 18° E
Starlink BE 3.2 17:06:15 10° SW 17:09:05 48° SSE 17:10:57 18° E
Starlink BM 3.2 17:06:31 10° SW 17:09:21 48° SSE 17:11:13 18° E
Starlink AX 3.2 17:06:45 10° SW 17:09:35 48° SSE 17:11:26 19° E
Starlink BH 3.2 17:06:58 10° SW 17:09:48 49° SSE 17:11:39 19° E
Cosmos 1125 Rocket 3.8 17:04:52 10° S 17:09:49 47° ESE 17:14:49 10° NNE
Starlink AZ 3.2 17:07:12 10° SW 17:10:02 49° SSE 17:11:53 19° E
Starlink BG 3.2 17:07:25 10° SW 17:10:15 49° SSE 17:12:05 19° E
Starlink BF 3.1 17:07:39 10° SW 17:10:30 49° SSE 17:12:19 19° E
Starlink BL 3.1 17:07:53 10° SW 17:10:43 49° SSE 17:12:32 19° E
Starlink AH 3.1 17:08:09 10° SW 17:10:59 50° SSE 17:12:48 19° E
Starlink AC 3.1 17:08:22 10° SW 17:11:13 50° SSE 17:13:01 19° E
Starlink X 3.1 17:08:37 10° SW 17:11:28 50° SSE 17:13:15 19° E
Starlink AE 3.1 17:08:47 10° SW 17:11:38 50° SSE 17:13:27 20° E
Okean-O 2.6 17:07:28 10° SSE 17:11:53 78° ENE 17:16:21 10° NNW
Starlink Z 3.1 17:09:05 10° SW 17:11:56 50° SSE 17:13:42 20° E
Starlink AK 3.1 17:09:18 10° SW 17:12:08 50° SSE 17:13:55 20° E
Starlink AL 3.1 17:09:31 10° SW 17:12:22 51° SSE 17:14:08 20° E
Starlink AD 3.1 17:09:47 10° SW 17:12:38 51° SSE 17:14:23 20° E
Starlink Y 3.1 17:10:14 10° SW 17:13:05 51° SSE 17:14:50 20° E
Cosmos 2219 Rocket 2.7 17:07:31 10° NW 17:13:10 66° WSW 17:18:46 10° SSE
Starlink AG 3.1 17:10:28 10° SW 17:13:19 52° SSE 17:15:03 20° E
Starlink W 3.1 17:10:40 10° SW 17:13:32 52° SSE 17:15:16 20° E
NOSS 0 Rocket 3.9 17:07:24 10° NNW 17:13:42 82° ENE 17:19:54 10° SSE
Starlink AJ 3.1 17:10:57 10° SW 17:13:49 52° SSE 17:15:32 21° E
Starlink AM 3.1 17:11:23 10° SW 17:14:14 52° SSE 17:15:56 21° E
Starlink AP 3.1 17:11:37 10° SW 17:14:28 53° SSE 17:16:10 21° E
Starlink AA 3.1 17:11:49 10° SW 17:14:40 53° SSE 17:16:22 21° E
Okean O Rocket 4.3 17:11:09 10° SSW 17:14:44 24° W 17:18:21 10° NW
Starlink AF 3.0 17:12:03 10° SW 17:14:54 53° SSE 17:16:35 21° E
Starlink AB 3.0 17:12:17 10° SW 17:15:08 53° SSE 17:16:49 21° E
Starlink AN 3.0 17:12:27 10° SW 17:15:19 53° SSE 17:16:59 22° E
COSMOS 2428 3.2 17:09:50 10° NW 17:15:32 65° WSW 17:21:12 10° SSE
Cosmos 2227 Rocket 3.4 17:11:37 10° SSE 17:15:43 21° E 17:18:07 16° ENE
Cosmos 1626 Rocket 3.4 17:12:15 10° S 17:16:33 71° E 17:20:53 10° NNE
TIMED 4.4 17:12:42 10° NNW 17:17:06 74° ENE 17:21:28 10° SSE
ATLAS CENTAUR R/B 2.9 17:14:07 10° NNW 17:17:12 19° NNE 17:18:38 16° NE
Timation 2 Rocket 3.9 17:13:59 10° SSW 17:20:02 70° ESE 17:26:23 10° NE
NOSS 2-1 (E) 4.4 17:16:42 10° NW 17:21:36 55° NE 17:28:23 10° ESE
Envisat 3.2 17:16:50 10° S 17:21:55 78° WSW 17:27:03 10° NNW
Starlink T 2.8 17:21:17 10° SW 17:24:11 61° SSE 17:25:31 27° E
Cosmos 1269 Rocket 4.0 17:20:01 10° NNW 17:25:18 68° ENE 17:30:33 10° SSE
Starlink N 2.8 17:22:31 10° WSW 17:25:25 63° SSE 17:26:42 28° E
Starlink Q 2.8 17:24:03 10° WSW 17:26:57 64° SSE 17:28:12 30° E
Starlink P 2.8 17:25:23 10° WSW 17:28:17 65° SSE 17:29:29 31° E
Cosmos 2341 Rocket 4.2 17:23:30 10° SSE 17:29:35 49° E 17:35:40 10° NNE
Starlink U 2.7 17:26:42 10° WSW 17:29:37 67° SSE 17:30:46 32° E
CZ-4 R/B 1.3 17:26:35 10° SSE 17:30:35 64° ENE 17:34:41 10° N
Starlink B 2.7 17:28:04 10° WSW 17:30:59 68° SSE 17:32:05 33° E
SL-8 Rocket 4.4 17:26:15 10° SSE 17:31:58 38° E 17:37:41 10° NNE
CZ-4 R/B 4.3 17:29:05 10° SSE 17:33:12 76° ENE 17:37:21 10° N
Cosmos 372 Rocket 4.4 17:29:44 10° SW 17:34:50 64° WNW 17:40:00 10° NNE
ADEOS Rocket 4.0 17:30:23 10° NE 17:35:50 28° E 17:41:43 10° SSE
Cosmos 1607 3.9 17:30:10 10° SW 17:36:19 88° SE 17:41:27 16° NE
ARGOS 4.5 17:36:39 19° NE 17:36:39 19° NE 17:40:11 10° N
Cosmos 1825 Rocket 4.0 17:32:28 10° SSE 17:36:29 37° E 17:39:27 16° NNE
Starlink S 2.7 17:33:33 10° WSW 17:36:29 74° SSE 17:37:24 40° E
Starlink D 2.7 17:33:35 10° WSW 17:36:32 74° SSE 17:37:28 39° E
SJ 16-02 3.8 17:34:57 10° W 17:38:05 19° NW 17:41:15 10° N
Starlink C 2.6 17:36:23 10° WSW 17:39:21 77° SSE 17:40:10 43° E
Starlink E 2.6 17:37:50 10° WSW 17:40:47 78° SSE 17:41:34 45° E
Starlink J 2.6 17:39:16 10° WSW 17:42:14 80° SSE 17:42:57 47° E
Starlink V 2.6 17:40:41 10° WSW 17:43:39 81° SSE 17:44:19 50° E
Starlink H 2.6 17:42:08 10° WSW 17:45:06 83° SSE 17:45:43 52° ENE
Starlink F 2.6 17:42:13 10° WSW 17:45:11 83° SSE 17:45:46 53° ENE
Starlink G 2.6 17:45:01 10° WSW 17:48:01 86° SSE 17:48:31 58° ENE
Meteor 2-17 Rocket 4.4 17:42:04 10° S 17:48:12 77° E 17:54:21 10° NNE
Meteor 2-10 Rocket 3.6 17:43:40 10° N 17:49:00 53° ENE 17:54:04 10° SSE
SKYMED 2 3.5 17:44:52 10° NNE 17:49:15 82° ESE 17:53:36 10° SSW
Starlink L 2.6 17:46:29 10° WSW 17:49:28 87° SSE 17:49:55 60° ENE
Starlink A 2.6 17:47:56 10° WSW 17:50:55 88° SSE 17:51:20 64° ENE
CSL-04 Debris 4.1 17:46:16 10° SSE 17:51:39 80° ENE 17:57:05 10° NNW
Starlink R 2.6 17:49:24 10° WSW 17:52:24 90° E 17:52:45 67° ENE
ERBS 3.7 17:49:49 10° S 17:52:10 23° SE 17:52:10 23° SE
Starlink K 2.6 17:50:50 10° WSW 17:53:50 89° NNW 17:54:08 70° ENE
Starlink M 2.6 17:52:15 10° WSW 17:55:14 87° NNW 17:55:29 73° ENE
USA 267 3.5 17:54:03 23° NE 17:58:11 60° NNW 18:04:35 10° W
Cosmos 724 4.4 17:53:26 10° SSW 17:59:12 54° ESE 18:01:55 30° ENE
CZ-2D R/B 3.1 17:56:46 10° SSE 18:00:34 76° ENE 18:04:25 10° N
USA 116 3.6 18:02:58 47° SSE 18:02:58 47° SSE 18:05:28 10° S
Cosmos 2218 Rocket 4.1 17:56:42 10° SSE 18:02:48 53° E 18:08:59 10° NNE
ATLAS CENTAUR R/B 4.2 17:57:34 10° WSW 18:03:46 72° NNW 18:15:07 22° ENE
Cosmos 2237 Rocket 2.5 17:58:11 10° NNW 18:03:47 68° WSW 18:09:21 10° SSE
Cosmos 2333 Rocket 4.4 17:59:13 10° NW 18:03:58 27° WSW 18:08:40 10° SSW
Ariane Rocket 3.1 18:00:25 10° SE 18:05:17 50° ENE 18:10:12 10° N
Cosmos 1339 Rocket 4.3 18:00:11 10° N 18:06:17 72° E 18:12:23 10° SSE
IRS-1A Rocket 4.4 18:01:23 10° SE 18:06:58 52° ENE 18:12:27 10° N
Cosmos 864 Rocket 4.5 18:05:22 10° SSE 18:11:18 54° E 18:17:16 10° NNE
YAOGAN 1 3.0 18:07:35 10° S 18:11:52 64° WSW 18:16:12 10° NNW
H-2A R/B 2.9 18:15:09 30° NNE 18:15:09 30° NNE 18:18:23 10° N
Meteor 1-21 Rocket 4.2 18:11:07 10° S 18:16:43 90° WNW 18:22:28 10° NNE
Cosmos-2242 3.2 18:13:54 10° NNW 18:18:15 72° W 18:22:31 10° S
CSL-04 Rocket 4.1 18:14:47 10° S 18:20:13 66° WSW 18:25:47 10° NNW
Cosmos 1455 2.1 18:17:21 10° NNW 18:21:12 82° W 18:24:59 10° S
MOS 1 4.4 18:19:37 35° ESE 18:21:45 53° ENE 18:27:17 10° N
Cosmos 2251 Rocket 3.4 18:17:32 10° NNW 18:22:48 63° ENE 18:24:10 46° ESE
SL-16 R/B 2.1 18:18:55 10° NNW 18:24:39 76° ENE 18:27:15 33° SE
Cosmos 1626 4.5 18:21:42 10° SW 18:24:44 23° WNW 18:27:47 10° NNW
ATLAS 5 CENTAUR R/B 3.4 18:25:08 10° WNW 18:29:00 26° NNW 18:30:43 22° N
DMSP B5D1-3 4.3 18:26:17 25° NNE 18:29:21 81° ESE 18:34:27 10° SSW
Cosmos 1959 Rocket 4.3 18:23:27 10° S 18:29:37 78° E 18:35:45 10° NNE
CZ-2C R/B 4.1 18:33:09 32° NNE 18:33:09 32° NNE 18:36:38 10° N
Cosmos 2219 3.2 18:26:04 10° SSW 18:31:41 80° WNW 18:34:24 32° NNE
Cosmos 2082 4.0 18:30:01 10° S 18:34:40 46° SE 18:34:40 46° SE
COSMO-SKYMED 1 4.0 18:33:15 10° N 18:37:15 36° WNW 18:41:13 10° SW
Cosmos 1939 Rocket 4.0 18:34:28 10° S 18:38:11 43° W 18:42:00 10° NNW
Cosmos 2366 rocket 3.9 18:33:30 10° S 18:39:43 87° E 18:46:02 10° N
Cosmos 1953 Rocket 3.7 18:38:38 10° SSW 18:43:07 72° W 18:44:05 53° NNW
Cosmos 2297 Rocket 2.1 18:41:20 10° SSW 18:47:00 85° WNW 18:48:25 53° NNE
Cosmos 1932 4.4 18:42:30 10° SSW 18:48:53 78° SE 18:50:04 61° ENE
SJ-11-01 4.5 18:56:11 68° NW 18:56:11 68° NW 19:00:28 10° NNW
ATLAS CENTAUR R/B 3.0 18:52:46 10° NW 18:54:50 27° NNW 18:54:50 27° NNW
Cosmos 2227 Rocket 2.2 18:53:30 10° SW 18:59:09 77° WNW 18:59:59 64° N
Cosmos 1727 Rocket 4.1 18:55:39 10° NNW 19:01:49 71° W 19:07:57 10° S
BREEZE-M DEB (TANK) 3.9 18:49:17 10° W 19:04:38 81° S 19:05:05 75° SE
CZ-4 R/B 4.5 19:03:42 10° SW 19:06:04 15° W 19:08:28 10° NW
Cosmos 1943 4.5 19:08:24 10° NNW 19:11:24 30° N 19:11:24 30° N
ARGOS 4.1 19:18:09 40° NNW 19:18:09 40° NNW 19:21:31 10° NNW
ADEOS Rocket 3.4 19:15:27 10° N 19:21:46 69° WNW 19:28:47 10° SSW
USA 267 3.7 19:41:23 50° NNW 19:41:23 50° NNW 19:47:02 10° WNW
H-2A R/B 4.0 19:55:45 23° NW 19:55:45 23° NW 19:57:56 10° NNW
SL-16 R/B 4.3 20:04:00 10° NW 20:08:09 21° W 20:09:13 20° WSW
ATLAS 5 CENTAUR R/B 4.2 20:20:01 10° NW 20:55:42 - SSE 20:24:36 62° WSW
Cosmos 2297 Rocket 4.5 20:27:32 10° W 20:30:16 20° WNW 20:30:16 20° WNW
